Погода в Сызрани

Погода в Сызрани : погода сейчас, прогноз погоды и архив. Всё, что Вы хотите узнать о погоде в Сызрани!

Хотите узнать прогноз погоды в Сызрани? Тогда Вам сюда: Погода в Сызрани

Поиск расширенной информации на нашем сайте:

Полезная информация: Актуальная информация горящие туры в Турцию, цены на путевки в Турцию здесь. - Poisk-toura.com

Другие новости

Новости СМИ2

Главная страница сайта

Новости сайта

03.07.2017

Напоминаем, что на нашем специализированном сайте Метеоцентр.Азия вы можете получить высокодетализированные автоматические прогнозы погоды по пунктам России, СНГ и мира в авиационном формате (включающие направление и скорость ветра, видимость, явления погоды, количество и форму облачности, нижнюю и верхнюю границу облачности).

Рекомендуем: Оплата тура онлайн купить тур онлайн. - Guru-tour.ru

Погода в Сызрани - сегодня

Время (UTC), дата Ветер
(°,м/с) 
Видим.   Явления Облачность Т
(°С)
Тd
(°С)
f(%) Тe
(°С)
Pmin
(гПа)
dP
(гПа)
Po
(мм)
O2
(г/м3)
Тmin Tmax R s Состояние
почвы
12 16.10.18 310 (СЗ) 20000 м    1/0 верхняя 
[Ci fib]
+21.9 -0.4 23 +22  1021.5  -0.6  757  282           
18 16.10.18 290 (З) 21000 м    4/0 верхняя 
[Ci fib]
+12 +4.8 61 +12  1022.2  0.1  757  292           
21 16.10.18 270 (З) 20000 м    3/0 верхняя 
[Ci fib]
+9.3 +5.3 76 +9  1021.4  -0.9  757  294           
00 17.10.18 270 (З) 20000 м    ясно 
+6.6 +3.8 82 +6  1020.7  -0.8  756  297           
03 17.10.18 280 (З) 20000 м    8/0 средняя, верхняя 
[Ac trans|Cc]
+7 +3.4 78 +7  1020.2  -0.9  756  296  +6.1        сухая 
06 17.10.18 270 (З) 20000 м    ясно 
+9.5 +4.3 70 +9  1019.1  -1  755  293  +6         
09 17.10.18 300 (СЗ) 20000 м    ясно 
+17.7 +3.5 39 +18  1018.1  -0.6  754  285           
18 17.10.18 350 (С) 21000 м    ясно 
+9.6 +3.4 65 +10  1023.7  1.6  758  295           
21 17.10.18 360 (С) 20000 м    ясно 
+5.6 +1.3 74 +5  1025.3  1.4  759  300           
00 18.10.18 330 (СЗ) 20000 м    ясно 
+2.5 -0.4 81 +3  1026.8  1.3  760  304           
03 18.10.18 тихо ()   20000 м    3/0 верхняя 
[Ci fib]
-0.2 -1.9 88 -0  1027.4  0.5  761  307  -0.2        замёрзшая 
06 18.10.18 190 (Ю) 20000 м    ясно 
+7.3 +1.2 65 +8  1027.7  0.6  761  299  -0.4         
09 18.10.18 270 (З) 20000 м    ясно 
+11.7 -1.4 40 +11  1026.9  -0.6  761  294           
12 18.10.18 250 (З) 20000 м    ясно 
+13.3 -1.1 37 +13  1025  -1.8  759  292           
18 18.10.18 260 (З) 18000 м    4/0 средняя, верхняя 
[Ac trans|Ci fib]
+6.1 +1.2 71 +7  1023.2  -1  758  298           
21 18.10.18 270 (З) 18000 м    4/0 средняя, верхняя 
[Ac trans|Ci fib]
+6.2 +1.7 73 +7  1022.8  -0.4  757  298           
00 19.10.18 260 (З) 20000 м    ясно 
+5.7 +2.2 78 +5  1022.1  -0.7  757  298           
06 19.10.18 260 (З) 20000 м    ясно 
+9 +4.6 74 +9  1020.2  -0.6  756  294           
09 19.10.18 270 (З) 20000 м    8/0 средняя, верхняя 
[Ac trans|Ci fib]
+17 +6.3 49 +17  1018.9  -0.9  755  285           
15 19.10.18 230 (ЮЗ) 3{10}  18000 м    8/3 600 м средняя 
[Sc|Ac trans]
+15.1 +6.3 56 +15  1017.2  -0.7  754  287    +19.1       
18 19.10.18 250 (З) 21000 м    5/0 средняя, верхняя 
[Ac trans|Ci fib]
+13.5 +5.5 58 +13  1016.9  -0.4  753  288           
21 19.10.18 250 (З) 20000 м    9/0 средняя 
[Ac trans]
+11.6 +5.2 65 +11  1016.2  -0.7  753  290           
00 20.10.18 260 (З) 20000 м    ясно 
+9.6 +4.4 70 +10  1015.5  -0.8  752  292           
03 20.10.18 260 (З) 20000 м    10/3 600 м средняя, верхняя 
[Sc|Ac trans|Ci fib]
+9 +2.6 64 +8  1014.7  -0.8  752  293  +8.5        сухая 
06 20.10.18 260 (З) 20000 м    9/1 1000 м средняя, верхняя 
[Sc|Ac trans|Ci fib]
+10.6 +3.4 61 +10  1014.5  0.1  752  291  +7.8         
Время (UTC), дата Ветер
(°,м/с) 
Видим.   Явления Облачность Т
(°С)
Тd
(°С)
f(%) Тe
(°С)
Pmin
(гПа)
dP
(гПа)
Po
(мм)
O2
(г/м3)
Тmin Tmax R s Состояние
почвы

Для получения пояснительной информации подведите курсор к названию столбца.

ПОГОДА в Сызрани - архив

Всё, что Вы хотите узнать о погоде в Сызрани - удобно и подробно!

Выберите нужную дату (начиная с 1 января 2015* года) и нажмите кнопку "Найти".
Будут отображены архивные сводки погоды по пункту Сызрань, начиная с указанной даты.


Отображать данные в формате CSV (для использования в таблицах Excel)


Внимание! Наш архив погоды предназначен исключительно для личного некоммерческого использования в познавательных целях. Если Вам необходимы официальные справки о состоянии погоды (для производственных, юридических, коммерческих и т.п. целей), обращайтесь в органы Росгидромета.

*Примечание: данная дата относится к архиву по метеостанциям СССР (Россия, СНГ, Балтия).
Архив по метеостанциям Зарубежной Европы и Азии (кроме Китая) хранится 10 дней, по другим регионам земного шара (Китай, Африка, Америка, Австралия, Океания) - 1 день.

Сызрань - район местоположения метеостанции


Название, широта, долгота, высота метеостанции:
Сызрань 53.2°ш. 48.4°д. 103 м над ур. моря [Российская Федерация]

Дополнительная информация

В oтличие oт бoльшинства пoгoдных сайтoв мы публикуем пoдрoбную метеoинфoрмацию в детальнoм прoфессиoнальнoм фoрмате.

Характеристики температуры и влажнoсти вoздуха измеряются на высoте 2 м в тени вдали oт зданий и деревьев.
Скoрoсть ветра измеряется на высoте 10 м (на урoвне рoста челoвека скoрoсть ветра ниже в 1.5-2 раза). Если метеoстанция нахoдится в гoрoде или в лесу, тo скoрoсть ветра занижена на 2-4 м/с пo сравнению с oткрытым местoм. Скoрoсть ветра над акватoриями крупных рек и oзёр, а также на вершинах хoлмoв на 2-5 м/с выше, чем в oбычных услoвиях.
Атмoсфернoе давление в разных тoчках местнoсти мoжет значительнo oтличаться oт давления на метеoстанции, в зависимoсти oт услoвий рельефа (при пoдъёме на 10 м давление пoнижается примернo на 1 мм рт.ст.).